GW4563 Weather Reports


time (UTC)temp
C
wind
direction
speed
KPH
gust
KPH
rain 1hr
cm
rain 24hr
cm
rain mn
cm
humidity
%
barometer
mb
20260504234759 21 120 0.0 1.6 0.00 0.00 0.00 49 1017.3
20260504234257 21 126 1.6 1.6 0.00 0.00 0.00 51 1017.3
20260504233753 21 122 1.6 1.6 0.00 0.00 0.00 50 1017.4
20260504233248 21 129 0.0 3.2 0.00 0.00 0.00 50 1017.4
20260504232746 21 122 1.6 1.6 0.00 0.00 0.00 48 1017.5
20260504232243 21 139 3.2 3.2 0.00 0.00 0.00 46 1017.4
20260504231740 22 142 0.0 0.0 0.00 0.00 0.00 46 1017.4
20260504231236 22 147 0.0 1.6 0.00 0.00 0.00 46 1017.4
20260504230732 22 147 0.0 0.0 0.00 0.00 0.00 47 1017.5
20260504230231 22 128 1.6 3.2 0.00 0.00 0.00 49 1017.6
20260504225729 22 164 0.0 3.2 0.00 0.00 0.00 49 1017.6
20260504225225 22 145 0.0 4.8 0.00 0.00 0.00 44 1017.6
20260504224722 22 126 0.0 0.0 0.00 0.00 0.00 48 1017.6
20260504224220 22 131 0.0 3.2 0.00 0.00 0.00 49 1017.7
20260504223716 22 119 1.6 3.2 0.00 0.00 0.00 49 1017.7
20260504223211 22 132 0.0 3.2 0.00 0.00 0.00 50 1017.8
20260504222709 22 113 3.2 3.2 0.00 0.00 0.00 49 1017.7
20260504222205 23 154 0.0 1.6 0.00 0.00 0.00 49 1017.7
20260504221703 23 158 1.6 3.2 0.00 0.00 0.00 50 1017.7
20260504221200 24 122 3.2 3.2 0.00 0.00 0.00 49 1017.8
20260504220656 24 147 1.6 3.2 0.00 0.00 0.00 47 1017.5
20260504220154 23 120 0.0 3.2 0.00 0.00 0.00 48 1017.5
20260504215650 24 126 3.2 3.2 0.00 0.00 0.00 47 1017.5
20260504215147 23 19 1.6 3.2 0.00 0.00 0.00 44 1017.5
20260504214643 23 156 0.0 1.6 0.00 0.00 0.00 47 1017.6
20260504214140 23 113 0.0 3.2 0.00 0.00 0.00 42 1017.4
20260504213636 23 101 1.6 4.8 0.00 0.00 0.00 48 1017.3
20260504213133 23 134 0.0 3.2 0.00 0.00 0.00 44 1017.5
20260504212629 23 126 1.6 1.6 0.00 0.00 0.00 44 1017.6
20260504212126 22 147 1.6 3.2 0.00 0.00 0.00 49 1017.5
20260504211624 23 125 1.6 3.2 0.00 0.00 0.00 48 1017.5
20260504211120 24 89 1.6 4.8 0.00 0.00 0.00 45 1017.6
20260504210618 25 100 1.6 3.2 0.00 0.00 0.00 40 1017.4
20260504210114 25 128 3.2 4.8 0.00 0.00 0.00 43 1017.5
20260504205612 25 127 3.2 3.2 0.00 0.00 0.00 43 1017.7
20260504205109 23 93 3.2 4.8 0.00 0.00 0.00 43 1017.6
20260504204608 24 108 3.2 4.8 0.00 0.00 0.00 47 1017.7
20260504204106 25 145 3.2 4.8 0.00 0.00 0.00 37 1017.6
20260504203604 26 125 1.6 3.2 0.00 0.00 0.00 35 1017.8
20260504203101 26 136 6.4 6.4 0.00 0.00 0.00 36 1017.8
20260504202556 26 121 6.4 6.4 0.00 0.00 0.00 38 1017.9
20260504202054 26 209 1.6 4.8 0.00 0.00 0.00 36 1018.0
20260504201550 26 146 1.6 4.8 0.00 0.00 0.00 38 1017.9
20260504201048 26 127 3.2 3.2 0.00 0.00 0.00 37 1018.1
20260504200544 27 127 3.2 3.2 0.00 0.00 0.00 38 1018.0
20260504200042 26 173 0.0 3.2 0.00 0.00 0.00 37 1018.0
20260504195537 26 85 3.2 4.8 0.00 0.00 0.00 40 1018.2
20260504195034 26 192 3.2 4.8 0.00 0.00 0.00 34 1018.2
20260504194531 27 89 3.2 3.2 0.00 0.00 0.00 37 1018.1
20260504194026 26 95 3.2 3.2 0.00 0.00 0.00 36 1018.2
20260504193523 26 20 1.6 4.8 0.00 0.00 0.00 36 1018.2
20260504193022 26 103 4.8 6.4 0.00 0.00 0.00 36 1018.6
20260504192520 25 112 3.2 4.8 0.00 0.00 0.00 43 1018.7
20260504192018 25 115 3.2 6.4 0.00 0.00 0.00 42 1018.6
20260504191515 26 115 6.4 8.0 0.00 0.00 0.00 38 1018.6
20260504191011 26 34 1.6 6.4 0.00 0.00 0.00 36 1018.8
20260504190507 26 121 4.8 6.4 0.00 0.00 0.00 36 1018.9
20260504190003 26 192 1.6 3.2 0.00 0.00 0.00 36 1019.0
20260504185501 26 154 3.2 4.8 0.00 0.00 0.00 36 1019.0
20260504184957 26 109 3.2 3.2 0.00 0.00 0.00 37 1019.2
20260504184452 26 48 3.2 3.2 0.00 0.00 0.00 36 1019.2
20260504183948 26 172 3.2 4.8 0.00 0.00 0.00 35 1019.2
20260504183446 26 89 0.0 3.2 0.00 0.00 0.00 35 1019.3
20260504182944 25 190 3.2 4.8 0.00 0.00 0.00 40 1019.4
20260504182440 26 99 3.2 3.2 0.00 0.00 0.00 41 1019.4
20260504181938 25 320 1.6 3.2 0.00 0.00 0.00 38 1019.5
20260504181434 25 269 0.0 3.2 0.00 0.00 0.00 40 1019.4
20260504180933 25 74 1.6 3.2 0.00 0.00 0.00 40 1019.5
20260504180432 24 205 3.2 3.2 0.00 0.00 0.00 40 1019.7
20260504175930 25 62 3.2 4.8 0.00 0.00 0.00 38 1019.8
20260504175426 24 339 0.0 4.8 0.00 0.00 0.00 40 1019.8
20260504174924 24 256 3.2 6.4 0.00 0.00 0.00 38 1019.8
20260504174421 24 107 3.2 6.4 0.00 0.00 0.00 40 1019.7
20260504173919 24 174 3.2 3.2 0.00 0.00 0.00 45 1019.9
20260504173415 23 95 3.2 4.8 0.00 0.00 0.00 41 1019.7
20260504172913 23 147 0.0 3.2 0.00 0.00 0.00 42 1020.0
20260504172408 23 213 3.2 6.4 0.00 0.00 0.00 39 1020.0
20260504171905 23 59 0.0 3.2 0.00 0.00 0.00 41 1020.0
20260504171402 22 179 3.2 4.8 0.00 0.00 0.00 40 1020.1
20260504170859 23 241 3.2 4.8 0.00 0.00 0.00 38 1020.1
20260504170355 22 177 3.2 4.8 0.00 0.00 0.00 39 1020.3
20260504160314 21 27 1.6 3.2 0.00 0.00 0.00 46 1020.9
20260504150739 18 153 3.2 3.2 0.00 0.00 0.00 54 1021.4
20260504150236 18 175 3.2 3.2 0.00 0.00 0.00 57 1021.4
20260504141205 16 80 3.2 4.8 0.00 0.00 0.00 68 1021.7
20260504140702 15 134 1.6 4.8 0.00 0.00 0.00 72 1021.6
20260504140157 15 63 1.6 4.8 0.00 0.00 0.00 76 1021.7
20260504130626 10 110 3.2 3.2 0.00 0.00 0.00 95 1021.5
20260504130123 10 105 3.2 3.2 0.00 0.00 0.00 95 1021.6
20260504110514 6 120 1.6 3.2 0.00 0.00 0.00 97 1020.8
20260504100436 6 118 3.2 3.2 0.00 0.00 0.00 95 1020.7
20260504081829 7 101 3.2 3.2 0.00 0.00 0.00 93 1021.2
20260504081326 7 113 3.2 3.2 0.00 0.00 0.00 93 1021.0
20260504080821 7 136 1.6 3.2 0.00 0.00 0.00 93 1020.7
20260504080319 7 107 3.2 3.2 0.00 0.00 0.00 93 1020.6
20260504070246 7 106 3.2 3.2 0.00 0.00 0.00 93 1021.4
20260504060207 8 131 3.2 3.2 0.00 0.00 0.00 89 1021.3
20260504050635 9 126 1.6 3.2 0.00 0.00 0.00 85 1021.5
20260504050132 9 110 1.6 3.2 0.00 0.00 0.00 84 1021.6
20260504045624 9 132 1.6 3.2 0.00 0.00 0.00 83 1021.7
20260504045123 9 131 0.0 3.2 0.00 0.00 0.00 83 1021.8
20260504044622 9 103 1.6 3.2 0.00 0.00 0.00 84 1021.8
20260504044118 10 111 1.6 3.2 0.00 0.00 0.00 84 1022.0
20260504043615 10 93 0.0 1.6 0.00 0.00 0.00 84 1022.0
20260504043113 10 107 1.6 3.2 0.00 0.00 0.00 83 1022.0
20260504042610 10 115 0.0 1.6 0.00 0.00 0.00 83 1021.8
20260504042107 10 104 1.6 1.6 0.00 0.00 0.00 83 1021.8
20260504041602 10 86 0.0 1.6 0.00 0.00 0.00 83 1021.7
20260504041059 10 100 1.6 3.2 0.00 0.00 0.00 82 1021.9
20260504040556 10 118 0.0 3.2 0.00 0.00 0.00 80 1021.8
20260504040053 10 101 0.0 3.2 0.00 0.00 0.00 79 1021.8
20260504035549 10 109 1.6 3.2 0.00 0.00 0.00 78 1021.8
20260504035046 10 109 0.0 3.2 0.00 0.00 0.00 77 1021.7
20260504034544 10 59 1.6 3.2 0.00 0.00 0.00 77 1021.8
20260504034040 10 114 1.6 3.2 0.00 0.00 0.00 78 1021.9
20260504033538 10 103 1.6 3.2 0.00 0.00 0.00 78 1021.9
20260504033035 10 112 3.2 3.2 0.00 0.00 0.00 76 1022.1
20260504032532 10 73 1.6 3.2 0.00 0.00 0.00 76 1021.9
20260504032029 11 81 0.0 3.2 0.00 0.00 0.00 75 1021.8
20260504031526 11 139 1.6 3.2 0.00 0.00 0.00 74 1021.7
20260504031022 11 81 1.6 1.6 0.00 0.00 0.00 73 1021.8
20260504030520 11 125 3.2 3.2 0.00 0.00 0.00 72 1021.8
20260504030016 11 91 1.6 3.2 0.00 0.00 0.00 72 1021.6
20260504025513 11 94 0.0 1.6 0.00 0.00 0.00 72 1021.7
20260504025010 11 142 1.6 3.2 0.00 0.00 0.00 71 1021.8
20260504024507 11 133 0.0 1.6 0.00 0.00 0.00 72 1021.8
20260504024004 11 138 1.6 3.2 0.00 0.00 0.00 72 1021.8
20260504023500 11 94 1.6 3.2 0.00 0.00 0.00 72 1021.8
20260504022956 11 92 1.6 1.6 0.00 0.00 0.00 72 1021.6
20260504022452 12 89 0.0 3.2 0.00 0.00 0.00 72 1021.6
20260504021949 12 128 1.6 3.2 0.00 0.00 0.00 73 1021.6
20260504021446 12 127 1.6 3.2 0.00 0.00 0.00 73 1021.5
20260504020944 12 97 0.0 1.6 0.00 0.00 0.00 72 1021.4
20260504020440 12 72 0.0 3.2 0.00 0.00 0.00 72 1021.2
20260504015937 12 76 1.6 3.2 0.00 0.00 0.00 70 1021.1
20260504015433 12 127 0.0 3.2 0.00 0.00 0.00 69 1021.1
20260504014929 12 123 1.6 3.2 0.00 0.00 0.00 67 1021.1
20260504014425 13 141 0.0 3.2 0.00 0.00 0.00 65 1021.1
20260504013922 13 125 1.6 1.6 0.00 0.00 0.00 64 1021.0
20260504013421 13 48 3.2 3.2 0.00 0.00 0.00 63 1020.9
20260504012916 13 124 1.6 3.2 0.00 0.00 0.00 61 1020.7
20260504012414 13 122 1.6 3.2 0.00 0.00 0.00 60 1020.7
20260504011911 13 116 0.0 3.2 0.00 0.00 0.00 59 1020.7
20260504011408 14 131 1.6 3.2 0.00 0.00 0.00 59 1020.8
20260504010904 14 120 1.6 1.6 0.00 0.00 0.00 57 1020.5
20260504010400 15 126 0.0 1.6 0.00 0.00 0.00 56 1020.5
20260504005856 15 129 1.6 3.2 0.00 0.00 0.00 56 1020.3
20260504005353 15 113 0.0 1.6 0.00 0.00 0.00 55 1020.4
20260504004851 15 113 0.0 1.6 0.00 0.00 0.00 55 1020.5
20260504004348 15 127 0.0 1.6 0.00 0.00 0.00 53 1020.5
20260504003845 16 82 0.0 1.6 0.00 0.00 0.00 51 1020.3
20260504003342 16 103 0.0 1.6 0.00 0.00 0.00 52 1020.2
20260504002838 16 134 3.2 3.2 0.00 0.00 0.00 50 1020.3
20260504002335 16 89 1.6 1.6 0.00 0.00 0.00 51 1020.3
20260504001833 17 133 0.0 1.6 0.00 0.00 0.00 48 1020.3
20260504001330 17 138 1.6 3.2 0.00 0.00 0.00 46 1020.1
20260504000827 17 155 1.6 1.6 0.00 0.00 0.00 45 1020.1
20260504000324 17 125 0.0 1.6 0.00 0.00 0.00 44 1020.1
20260503235821 17 135 1.6 1.6 0.00 0.00 0.00 44 1020.3
20260503235319 18 136 0.0 1.6 0.00 0.00 0.00 44 1020.2